When you browse on this site, cookies collect data to enhance your experience and personalize the content and advertising you see.
Visit our Privacy Policy to learn more. By continuing to use the site, you agree to this use of cookies and data.
  • In Sweden
  • List of Countries
  • For 7 days
  • Water Temperature
  • Weather Map
  • Weather Widgets
  • user-avatar
    Login

    Hourly Weather Rozhnyatov

    Today, 7 June, Sunday

    Time Temperature Precipitation Wind Pressure Humidity
    00:00 +19°C° 0 mm 1 mps 722 mmHg 96%
    01:00 +18°C° 0 mm 1 mps 722 mmHg 100%
    02:00 +16°C° 0 mm 1 mps 722 mmHg 100%
    03:00 +16°C° 0 mm 1 mps 721 mmHg 100%
    04:00 +16°C° 0 mm 1 mps 721 mmHg 100%
    05:00 +15°C° 0 mm 1 mps 721 mmHg 100%
    06:00 +16°C° 0 mm 1 mps 721 mmHg 100%
    07:00 +16°C° 0 mm 1 mps 721 mmHg 100%
    08:00 +19°C° 0 mm 1 mps 721 mmHg 100%
    09:00 +21°C° 0 mm 1 mps 721 mmHg 96%
    10:00 +23°C° 0 mm 1 mps 722 mmHg 96%
    11:00 +25°C° 0 mm 2 mps 722 mmHg 89%
    12:00 +26°C° 0 mm 3 mps 723 mmHg 81%
    13:00 +27°C° 0 mm 4 mps 722 mmHg 72%
    14:00 +27°C° 0 mm 4 mps 722 mmHg 65%
    15:00 +27°C° 0 mm 5 mps 722 mmHg 67%
    16:00 +27°C° 0 mm 4 mps 721 mmHg 72%
    17:00 +26°C° 0 mm 4 mps 721 mmHg 80%
    18:00 +23°C° 0 mm 4 mps 721 mmHg 91%
    19:00 +23°C° 0 mm 2 mps 721 mmHg 94%
    20:00 +22°C° 0 mm 3 mps 722 mmHg 96%
    21:00 +21°C° 0.1 mm 3 mps 722 mmHg 97%
    22:00 +20°C° 0 mm 2 mps 722 mmHg 98%
    23:00 +20°C° 0 mm 1 mps 722 mmHg 100%

    Tomorrow, 8 June, Monday

    Time Temperature Precipitation Wind Pressure Humidity
    00:00 +20°C° 0 mm 1 mps 721 mmHg 97%
    01:00 +19°C° 0 mm 2 mps 721 mmHg 95%
    02:00 +18°C° 0 mm 2 mps 721 mmHg 96%
    03:00 +18°C° 0 mm 2 mps 721 mmHg 94%
    04:00 +17°C° 0 mm 2 mps 721 mmHg 93%
    05:00 +17°C° 0 mm 3 mps 721 mmHg 95%
    06:00 +17°C° 0 mm 3 mps 721 mmHg 94%
    07:00 +19°C° 0 mm 3 mps 721 mmHg 92%
    08:00 +20°C° 0 mm 3 mps 721 mmHg 90%
    09:00 +21°C° 0 mm 4 mps 721 mmHg 86%
    10:00 +22°C° 0 mm 5 mps 722 mmHg 88%
    11:00 +23°C° 0 mm 5 mps 722 mmHg 90%
    12:00 +23°C° 0 mm 6 mps 722 mmHg 91%
    13:00 +23°C° 0 mm 7 mps 721 mmHg 91%
    14:00 +23°C° 0 mm 7 mps 720 mmHg 91%
    15:00 +23°C° 0 mm 6 mps 721 mmHg 89%
    16:00 +23°C° 0 mm 5 mps 720 mmHg 88%
    17:00 +21°C° 1.5 mm 3 mps 721 mmHg 91%
    18:00 +19°C° 8.9 mm 3 mps 720 mmHg 90%
    19:00 +20°C° 1 mm 2 mps 719 mmHg 84%
    20:00 +19°C° 0 mm 3 mps 720 mmHg 95%
    21:00 +20°C° 0 mm 1 mps 720 mmHg 99%
    22:00 +19°C° 0 mm 1 mps 720 mmHg 99%
    23:00 +19°C° 0 mm 1 mps 720 mmHg 100%

    Day after tomorrow, 9 June, Tuesday

    Time Temperature Precipitation Wind Pressure Humidity
    00:00 +18°C° 0 mm 2 mps 720 mmHg 100%
    01:00 +17°C° 0 mm 2 mps 720 mmHg 100%
    02:00 +17°C° 0 mm 2 mps 720 mmHg 100%
    03:00 +18°C° 0 mm 1 mps 720 mmHg 100%
    04:00 +18°C° 0 mm 1 mps 720 mmHg 100%
    05:00 +18°C° 0 mm 1 mps 721 mmHg 100%
    06:00 +18°C° 0 mm 1 mps 721 mmHg 100%
    07:00 +18°C° 0 mm 1 mps 721 mmHg 100%
    08:00 +17°C° 0 mm 2 mps 722 mmHg 100%
    09:00 +17°C° 0 mm 2 mps 722 mmHg 100%
    10:00 +18°C° 0 mm 1 mps 722 mmHg 99%
    11:00 +19°C° 0 mm 1 mps 722 mmHg 99%
    12:00 +19°C° 0 mm 2 mps 723 mmHg 99%
    13:00 +20°C° 0 mm 1 mps 722 mmHg 98%
    14:00 +21°C° 0 mm 1 mps 722 mmHg 98%
    15:00 +22°C° 0 mm 1 mps 722 mmHg 96%
    16:00 +20°C° 2.9 mm 3 mps 722 mmHg 98%
    17:00 +21°C° 2 mm 1 mps 722 mmHg 92%
    18:00 +22°C° 0 mm 1 mps 722 mmHg 93%
    19:00 +22°C° 0 mm 1 mps 721 mmHg 96%
    20:00 +21°C° 0 mm 1 mps 721 mmHg 99%
    21:00 +20°C° 0 mm 1 mps 721 mmHg 100%
    22:00 +20°C° 0 mm 1 mps 722 mmHg 100%
    23:00 +19°C° 0 mm 1 mps 722 mmHg 100%

    10 June, Wednesday

    Time Temperature Precipitation Wind Pressure Humidity
    00:00 +19°C° 0 mm 1 mps 722 mmHg 100%
    01:00 +17°C° 0 mm 0 mps 721 mmHg 100%
    02:00 +19°C° 0 mm 1 mps 721 mmHg 100%
    03:00 +19°C° 0 mm 1 mps 721 mmHg 100%
    04:00 +17°C° 0 mm 0 mps 721 mmHg 100%
    05:00 +16°C° 0 mm 0 mps 721 mmHg 100%
    06:00 +18°C° 0 mm 1 mps 721 mmHg 100%
    07:00 +18°C° 0 mm 1 mps 721 mmHg 100%
    08:00 +19°C° 0 mm 1 mps 721 mmHg 100%
    09:00 +19°C° 0 mm 1 mps 721 mmHg 100%
    10:00 +20°C° 0 mm 1 mps 722 mmHg 98%
    11:00 +20°C° 0 mm 2 mps 721 mmHg 98%
    12:00 +23°C° 0 mm 2 mps 721 mmHg 97%
    13:00 +22°C° 0 mm 3 mps 721 mmHg 95%
    14:00 +24°C° 0 mm 3 mps 721 mmHg 92%
    15:00 +23°C° 0 mm 4 mps 720 mmHg 90%
    16:00 +25°C° 0 mm 3 mps 720 mmHg 88%
    17:00 +20°C° 4.3 mm 3 mps 720 mmHg 88%
    18:00 +22°C° 0 mm 1 mps 720 mmHg 91%
    19:00 +23°C° 0 mm 1 mps 720 mmHg 94%
    20:00 +22°C° 0 mm 1 mps 719 mmHg 98%
    21:00 +21°C° 0 mm 2 mps 719 mmHg 96%
    22:00 +21°C° 0 mm 1 mps 719 mmHg 92%
    23:00 +20°C° 0 mm 1 mps 720 mmHg 93%

    11 June, Thursday

    Time Temperature Precipitation Wind Pressure Humidity
    00:00 +20°C° 0 mm 1 mps 720 mmHg 95%
    01:00 +20°C° 0 mm 1 mps 720 mmHg 93%
    02:00 +20°C° 0 mm 1 mps 720 mmHg 90%
    03:00 +19°C° 0 mm 1 mps 719 mmHg 88%
    04:00 +19°C° 0 mm 1 mps 720 mmHg 87%
    05:00 +19°C° 0 mm 1 mps 720 mmHg 90%
    06:00 +19°C° 0 mm 1 mps 720 mmHg 94%
    07:00 +20°C° 0 mm 1 mps 720 mmHg 97%
    08:00 +21°C° 0 mm 1 mps 721 mmHg 97%
    09:00 +21°C° 0 mm 2 mps 721 mmHg 95%
    10:00 +21°C° 0 mm 2 mps 721 mmHg 96%
    11:00 +22°C° 0 mm 3 mps 721 mmHg 97%
    12:00 +24°C° 0 mm 3 mps 721 mmHg 95%
    13:00 +23°C° 0 mm 4 mps 720 mmHg 87%
    14:00 +23°C° 0 mm 4 mps 720 mmHg 87%
    15:00 +25°C° 0 mm 3 mps 720 mmHg 89%
    16:00 +25°C° 0 mm 4 mps 720 mmHg 88%
    17:00 +21°C° 3.3 mm 1 mps 720 mmHg 92%
    18:00 +20°C° 3.3 mm 3 mps 719 mmHg 89%
    19:00 +20°C° 0 mm 3 mps 719 mmHg 90%
    20:00 +19°C° 0 mm 2 mps 720 mmHg 97%
    21:00 +20°C° 0 mm 1 mps 720 mmHg 100%
    22:00 +20°C° 0 mm 1 mps 720 mmHg 99%
    23:00 +19°C° 0 mm 3 mps 720 mmHg 100%

    12 June, Friday

    Time Temperature Precipitation Wind Pressure Humidity
    00:00 +19°C° 0 mm 3 mps 720 mmHg 100%
    01:00 +19°C° 0 mm 2 mps 719 mmHg 100%
    02:00 +18°C° 0 mm 2 mps 719 mmHg 100%
    03:00 +19°C° 0 mm 1 mps 719 mmHg 100%
    04:00 +18°C° 0 mm 1 mps 719 mmHg 100%
    05:00 +19°C° 0 mm 1 mps 719 mmHg 100%
    06:00 +19°C° 0 mm 1 mps 719 mmHg 100%
    07:00 +19°C° 0 mm 1 mps 720 mmHg 100%
    08:00 +19°C° 0 mm 1 mps 720 mmHg 100%
    09:00 +20°C° 0 mm 2 mps 720 mmHg 98%
    10:00 +21°C° 0 mm 2 mps 720 mmHg 96%
    11:00 +24°C° 0 mm 3 mps 720 mmHg 91%
    12:00 +25°C° 0 mm 3 mps 720 mmHg 87%
    13:00 +25°C° 0 mm 2 mps 720 mmHg 89%
    14:00 +25°C° 0.2 mm 2 mps 720 mmHg 89%
    15:00 +26°C° 0.1 mm 2 mps 719 mmHg 86%
    16:00 +21°C° 4.2 mm 5 mps 719 mmHg 94%
    17:00 +21°C° 5.3 mm 6 mps 719 mmHg 93%
    18:00 +21°C° 4.2 mm 4 mps 721 mmHg 96%
    19:00 +19°C° 10.7 mm 3 mps 720 mmHg 96%
    20:00 +19°C° 0 mm 2 mps 719 mmHg 96%
    21:00 +18°C° 0 mm 0 mps 719 mmHg 99%
    22:00 +20°C° 0 mm 1 mps 719 mmHg 99%
    23:00 +20°C° 0 mm 1 mps 719 mmHg 99%
    Show more